CW8826 Weather Reports


Display with metric or nautical units.
time (UTC)temp
F
wind
direction
speed
MPH
gust
MPH
rain 1hr
in
rain 24hr
in
rain mn
in
humidity
%
barometer
mb
20260504213017 66 135 2.0 5.0 0.01 0.01 0.01 38 1007.2
20260504212017 68 248 1.0 3.0 0.00 0.00 0.00 37 1007.5
20260504211017 69 270 1.0 4.0 0.00 0.00 0.00 28 1007.4
20260504210017 69 225 1.0 3.0 0.00 0.00 0.00 29 1007.4
20260504205017 69 248 2.0 3.0 0.00 0.00 0.00 28 1007.5
20260504204058 69 293 2.0 4.0 0.00 0.00 0.00 28 1007.5
20260504203016 69 315 3.0 7.0 0.00 0.00 0.00 27 1007.6
20260504202017 70 338 3.0 8.0 0.00 0.00 0.00 28 1008.0
20260504201037 70 135 1.0 4.0 0.00 0.00 0.00 24 1008.0
20260504200017 71 248 5.0 10.0 0.00 0.00 0.00 24 1008.1
20260504195017 72 225 4.0 11.0 0.00 0.00 0.00 24 1008.8
20260504194016 72 315 4.0 8.0 0.00 0.00 0.00 25 1008.9
20260504193017 71 270 4.0 10.0 0.00 0.00 0.00 24 1008.6
20260504192016 70 23 3.0 7.0 0.00 0.00 0.00 24 1008.7
20260504191037 71 45 4.0 8.0 0.00 0.00 0.00 25 1008.9
20260504190016 71 270 3.0 9.0 0.00 0.00 0.00 26 1009.0
20260504185158 71 248 3.0 9.0 0.00 0.00 0.00 25 1009.1
20260504184017 71 270 3.0 8.0 0.00 0.00 0.00 25 1009.2
20260504183017 70 270 3.0 7.0 0.00 0.00 0.00 26 1009.4
20260504182017 69 248 4.0 7.0 0.00 0.00 0.00 27 1009.2
20260504181017 70 248 6.0 10.0 0.00 0.00 0.00 28 1009.3
20260504180017 70 270 3.0 7.0 0.00 0.00 0.00 28 1009.8
20260504175016 69 0 3.0 5.0 0.00 0.00 0.00 28 1009.5
20260504174016 68 225 2.0 5.0 0.00 0.00 0.00 29 1009.7
20260504173037 68 203 4.0 8.0 0.00 0.00 0.00 31 1009.9
20260504172016 68 270 3.0 7.0 0.00 0.00 0.00 31 1010.0
20260504171017 68 225 2.0 4.0 0.00 0.00 0.00 31 1010.1
20260504151017 63 135 2.0 3.0 0.00 0.00 0.00 34 1010.7
20260504141037 58 90 3.0 8.0 0.00 0.00 0.00 34 1010.2
20260504081016 59 135 5.0 12.0 0.00 0.00 0.00 25 1010.6
20260504050017 63 68 13.0 18.0 0.00 0.00 0.00 22 1010.8
20260504045017 62 113 8.0 17.0 0.00 0.00 0.00 24 1010.3
20260504044037 63 90 10.0 17.0 0.00 0.00 0.00 23 1010.7
20260504043017 62 113 10.0 17.0 0.00 0.00 0.00 23 1010.2
20260504042018 62 90 9.0 17.0 0.00 0.00 0.00 25 1010.0
20260504041017 62 113 10.0 16.0 0.00 0.00 0.00 25 1010.3
20260504040037 62 113 12.0 18.0 0.00 0.00 0.00 26 1009.9
20260504035017 62 113 10.0 17.0 0.00 0.00 0.00 25 1009.9
20260504034018 64 90 9.0 16.0 0.00 0.00 0.00 23 1010.2
20260504033017 64 90 10.0 15.0 0.00 0.00 0.00 23 1010.1
20260504032017 64 113 10.0 15.0 0.00 0.00 0.00 24 1009.4
20260504031017 64 90 11.0 16.0 0.00 0.00 0.00 24 1009.5
20260504030037 64 90 9.0 15.0 0.00 0.00 0.00 24 1009.5
20260504025037 65 90 11.0 16.0 0.00 0.00 0.00 23 1009.0
20260504024017 65 90 8.0 14.0 0.00 0.00 0.00 24 1009.1
20260504023017 65 113 9.0 14.0 0.00 0.00 0.00 25 1009.0
20260504022017 65 113 9.0 14.0 0.00 0.00 0.00 24 1009.3
20260504021057 65 113 9.0 13.0 0.00 0.00 0.00 25 1009.3
20260504020017 66 113 6.0 10.0 0.00 0.00 0.00 24 1009.4
20260504015017 67 113 2.0 4.0 0.00 0.00 0.00 22 1010.0
20260504014057 68 90 2.0 3.0 0.00 0.00 0.00 19 1010.1
20260504013017 69 68 1.0 2.0 0.00 0.00 0.00 19 1010.6
20260504012017 69 68 1.0 3.0 0.00 0.00 0.00 18 1010.2
20260504011017 70 0 1.0 3.0 0.00 0.00 0.00 18 1010.3
20260504010017 70 0 2.0 5.0 0.00 0.00 0.00 16 1010.3
20260504005017 70 315 2.0 4.0 0.00 0.00 0.00 17 1010.5
20260504004017 71 338 3.0 6.0 0.00 0.00 0.00 16 1010.5
20260504003017 71 338 4.0 7.0 0.00 0.00 0.00 15 1010.5
20260504002038 72 0 4.0 6.0 0.00 0.00 0.00 16 1011.2
20260504001017 72 0 3.0 7.0 0.00 0.00 0.00 15 1011.3
20260504000017 72 315 1.0 2.0 0.00 0.00 0.00 15 1011.3
20260503235017 72 315 1.0 3.0 0.00 0.00 0.00 14 1010.9
20260503234017 72 315 2.0 4.0 0.00 0.00 0.00 14 1011.0
20260503233057 72 315 3.0 8.0 0.00 0.00 0.00 14 1011.1
20260503232018 72 315 4.0 7.0 0.00 0.00 0.00 13 1011.4
20260503231017 73 315 3.0 7.0 0.00 0.00 0.00 14 1011.5
20260503230017 73 315 5.0 9.0 0.00 0.00 0.00 13 1011.6
20260503225017 74 315 4.0 9.0 0.00 0.00 0.00 14 1011.7
20260503224017 74 0.0 3.0 0.00 0.00 0.00 12 1011.9
20260503223017 74 270 1.0 5.0 0.00 0.00 0.00 11 1012.0
20260503222017 74 248 2.0 8.0 0.00 0.00 0.00 12 1012.6
20260503221017 74 270 3.0 6.0 0.00 0.00 0.00 14 1012.8
20260503220017 73 315 2.0 5.0 0.00 0.00 0.00 13 1012.7
20260503215037 73 270 2.0 4.0 0.00 0.00 0.00 13 1012.9
20260503214017 73 225 1.0 3.0 0.00 0.00 0.00 11 1013.0